Location: Wawayanda State Park
(41.1833°N, 74.4333°W)
Time: 18:45:26
(UTC-05:00)

RESURS DK-1 - Visible Passes

Search period start: 13 February 2016 00:00
Search period end: 23 February 2016 00:00
Orbit: 558 x 564 km, 69.9° (Epoch: 13 February)

Date Brightness Start Highest point End Pass type
(mag) Time Alt. Az. Time Alt. Az. Time Alt. Az.
13 Feb 2.3 18:27:18 10° NNW 18:31:29 74° ENE 18:35:38 10° SSE visible
14 Feb 2.5 18:26:17 10° NNW 18:30:28 80° WSW 18:34:36 10° SSE visible
15 Feb 3.1 18:25:20 10° NNW 18:29:25 56° WSW 18:33:29 10° S visible
16 Feb 3.9 18:24:27 10° NW 18:28:22 40° WSW 18:32:14 10° S visible
17 Feb 4.7 18:23:39 10° NW 18:27:15 29° WSW 18:30:51 10° SSW visible
18 Feb 5.4 18:22:58 10° NW 18:26:08 21° WSW 18:29:18 10° SSW visible
19 Feb 5.7 18:22:30 10° WNW 18:24:59 16° WSW 18:27:28 10° SW visible
20 Feb 6.3 18:22:37 10° W 18:23:49 11° W 18:25:02 10° WSW visible
